Location: Llanfihangel-Ystrad
(52.1833°N, 4.1667°W)
Time: 09:01:35
(UTC+00:00)

SL-16 R/B - Pass Details

Date: 17 February 2020
Orbit: 842 x 846 km, 71.0° (Epoch: 10 April)

Event Time Altitude Azimuth Distance (km) Brightness Sun altitude
Exits shadow 03:12:31 18° 7° (N) 1,960 4.4 -38.5°
Drops below altitude 10° 03:14:18 10° 19° (NNE) 2,477 5.1 -38.3°
Sets 03:17:05 0° 31° (NNE) 3,416 6.1 -38.0°
